When you browse on this site, cookies collect data to enhance your experience and personalize the content and advertising you see.
Visit our Privacy Policy to learn more. By continuing to use the site, you agree to this use of cookies and data.
  • In Sweden
  • List of Countries
  • For 7 days
  • Water Temperature
  • Satellite Maps
  • Weather Map
  • Weather Widgets
  • user-avatar
    Login

    Hourly Weather Bucak

    Today, 21 January, Monday

    Time Temperature Precipitation Wind Pressure Humidity
    00:00 +5°C° 0.4 mm 1 mps 688 mmHg 97%
    01:00 +6°C° 0.4 mm 1 mps 688 mmHg 97%
    02:00 +5°C° 0 mm 2 mps 687 mmHg 98%
    03:00 +5°C° 0.5 mm 2 mps 687 mmHg 97%
    04:00 +4°C° 0.5 mm 2 mps 687 mmHg 97%
    05:00 +4°C° 0.5 mm 2 mps 687 mmHg 97%
    06:00 +4°C° 0.2 mm 2 mps 686 mmHg 97%
    07:00 +4°C° 0.2 mm 2 mps 686 mmHg 96%
    08:00 +4°C° 0 mm 2 mps 686 mmHg 95%
    09:00 +4°C° 0.4 mm 2 mps 686 mmHg 93%
    10:00 +4°C° 0.4 mm 2 mps 686 mmHg 91%
    11:00 +5°C° 0.4 mm 2 mps 686 mmHg 89%
    12:00 +5°C° 1.8 mm 1 mps 686 mmHg 90%
    13:00 +5°C° 1.8 mm 1 mps 686 mmHg 91%
    14:00 +5°C° 1.8 mm 1 mps 685 mmHg 92%
    15:00 +5°C° 1.1 mm 1 mps 685 mmHg 92%
    16:00 +5°C° 1.1 mm 1 mps 685 mmHg 93%
    17:00 +4°C° 1.1 mm 1 mps 685 mmHg 93%
    18:00 +4°C° 0.1 mm 1 mps 686 mmHg 93%
    19:00 +4°C° 0.1 mm 1 mps 686 mmHg 93%
    20:00 +3°C° 0.1 mm 1 mps 686 mmHg 92%
    21:00 +4°C° 0 mm 1 mps 686 mmHg 93%
    22:00 +4°C° 0 mm 1 mps 686 mmHg 94%
    23:00 +4°C° 0 mm 1 mps 687 mmHg 94%

    Tomorrow, 22 January, Tuesday

    Time Temperature Precipitation Wind Pressure Humidity
    00:00 +4°C° 0 mm 1 mps 687 mmHg 95%
    01:00 +4°C° 0 mm 1 mps 687 mmHg 95%
    02:00 +5°C° 0 mm 1 mps 687 mmHg 96%
    03:00 +4°C° 0 mm 1 mps 687 mmHg 96%
    04:00 +3°C° 0 mm 0 mps 687 mmHg 96%
    05:00 +3°C° 0 mm 0 mps 687 mmHg 96%
    06:00 +3°C° 0 mm 0 mps 687 mmHg 95%
    07:00 +5°C° 0 mm 1 mps 687 mmHg 94%
    08:00 +5°C° 0 mm 1 mps 687 mmHg 93%
    09:00 +6°C° 0 mm 1 mps 687 mmHg 89%
    10:00 +7°C° 0 mm 1 mps 688 mmHg 85%
    11:00 +8°C° 0 mm 1 mps 688 mmHg 82%
    12:00 +8°C° 0 mm 1 mps 687 mmHg 81%
    13:00 +9°C° 0 mm 1 mps 687 mmHg 81%
    14:00 +9°C° 0 mm 1 mps 686 mmHg 80%
    15:00 +8°C° 0.1 mm 1 mps 686 mmHg 84%
    16:00 +7°C° 0.1 mm 1 mps 686 mmHg 89%
    17:00 +7°C° 0.1 mm 1 mps 686 mmHg 93%
    18:00 +6°C° 0 mm 1 mps 686 mmHg 94%
    19:00 +6°C° 0 mm 1 mps 686 mmHg 96%
    20:00 +5°C° 0 mm 1 mps 686 mmHg 98%
    21:00 +5°C° 0 mm 1 mps 686 mmHg 97%
    22:00 +5°C° 0 mm 1 mps 687 mmHg 97%
    23:00 +5°C° 0 mm 1 mps 687 mmHg 97%

    Day after tomorrow, 23 January, Wednesday

    Time Temperature Precipitation Wind Pressure Humidity
    00:00 +5°C° 0 mm 1 mps 687 mmHg 97%
    01:00 +5°C° 0 mm 1 mps 687 mmHg 97%
    02:00 +5°C° 0 mm 1 mps 687 mmHg 96%
    03:00 +5°C° 0 mm 1 mps 686 mmHg 96%
    04:00 +5°C° 0 mm 1 mps 686 mmHg 96%
    05:00 +5°C° 0 mm 1 mps 686 mmHg 95%
    06:00 +5°C° 0 mm 1 mps 686 mmHg 95%
    07:00 +5°C° 0 mm 1 mps 686 mmHg 94%
    08:00 +5°C° 0 mm 1 mps 686 mmHg 94%
    09:00 +5°C° 0 mm 2 mps 686 mmHg 90%
    10:00 +6°C° 0 mm 2 mps 686 mmHg 86%
    11:00 +7°C° 0 mm 2 mps 686 mmHg 82%
    12:00 +7°C° 0.1 mm 2 mps 686 mmHg 82%
    13:00 +7°C° 0.1 mm 2 mps 685 mmHg 83%
    14:00 +7°C° 0.1 mm 2 mps 684 mmHg 83%
    15:00 +6°C° 0.1 mm 2 mps 684 mmHg 86%
    16:00 +6°C° 0.1 mm 2 mps 684 mmHg 89%
    17:00 +5°C° 0.1 mm 2 mps 683 mmHg 92%
    18:00 +5°C° 0.2 mm 2 mps 683 mmHg 93%
    19:00 +5°C° 0.2 mm 2 mps 683 mmHg 94%
    20:00 +5°C° 0.2 mm 2 mps 683 mmHg 94%
    21:00 +5°C° 0.5 mm 2 mps 683 mmHg 95%
    22:00 +5°C° 0.5 mm 2 mps 683 mmHg 95%
    23:00 +4°C° 0.5 mm 3 mps 683 mmHg 95%

    24 January, Thursday

    Time Temperature Precipitation Wind Pressure Humidity
    00:00 +4°C° 0.2 mm 3 mps 683 mmHg 95%
    01:00 +4°C° 0.2 mm 3 mps 682 mmHg 96%
    02:00 +3°C° 0.2 mm 3 mps 682 mmHg 96%
    03:00 +3°C° 0 mm 3 mps 681 mmHg 95%
    04:00 +3°C° 0 mm 3 mps 681 mmHg 95%
    05:00 +2°C° 0 mm 3 mps 680 mmHg 94%
    06:00 +2°C° 0 mm 3 mps 680 mmHg 92%
    07:00 +2°C° 0 mm 3 mps 680 mmHg 90%
    08:00 +3°C° 0 mm 2 mps 680 mmHg 87%
    09:00 +4°C° 0 mm 3 mps 679 mmHg 79%
    10:00 +5°C° 0 mm 4 mps 679 mmHg 71%
    11:00 +7°C° 0 mm 5 mps 679 mmHg 63%
    12:00 +7°C° 0 mm 5 mps 678 mmHg 63%
    13:00 +7°C° 0 mm 6 mps 678 mmHg 62%
    14:00 +6°C° 0 mm 7 mps 677 mmHg 62%
    15:00 +6°C° 2.4 mm 5 mps 677 mmHg 71%
    16:00 +5°C° 2.4 mm 3 mps 677 mmHg 81%
    17:00 +5°C° 2.4 mm 1 mps 676 mmHg 91%
    18:00 +6°C° 5.7 mm 1 mps 677 mmHg 92%
    19:00 +5°C° 5.7 mm 2 mps 678 mmHg 94%
    20:00 +5°C° 5.7 mm 2 mps 679 mmHg 96%
    21:00 +5°C° 0.6 mm 2 mps 679 mmHg 97%
    22:00 +5°C° 0.6 mm 2 mps 680 mmHg 97%
    23:00 +4°C° 0.6 mm 3 mps 681 mmHg 98%

    25 January, Friday

    Time Temperature Precipitation Wind Pressure Humidity
    00:00 +5°C° 0.5 mm 2 mps 681 mmHg 98%
    01:00 +5°C° 0.5 mm 2 mps 681 mmHg 98%
    02:00 +5°C° 0.5 mm 2 mps 682 mmHg 98%
    03:00 +5°C° 0.3 mm 2 mps 682 mmHg 98%
    04:00 +5°C° 0.3 mm 2 mps 682 mmHg 98%
    05:00 +5°C° 0.3 mm 2 mps 682 mmHg 98%
    06:00 +5°C° 0.3 mm 2 mps 682 mmHg 98%
    07:00 +5°C° 0.3 mm 2 mps 682 mmHg 98%
    08:00 +4°C° 0.3 mm 3 mps 683 mmHg 97%
    09:00 +5°C° 0.2 mm 3 mps 683 mmHg 95%
    10:00 +5°C° 0.2 mm 3 mps 682 mmHg 93%
    11:00 +6°C° 0.2 mm 4 mps 682 mmHg 91%
    12:00 +5°C° 0.2 mm 4 mps 682 mmHg 91%
    13:00 +5°C° 0.2 mm 4 mps 681 mmHg 90%
    14:00 +5°C° 0.2 mm 4 mps 681 mmHg 90%
    15:00 +5°C° 0.3 mm 4 mps 681 mmHg 91%
    16:00 +5°C° 0.3 mm 4 mps 681 mmHg 92%
    17:00 +5°C° 0.3 mm 4 mps 681 mmHg 92%
    18:00 +4°C° 0.3 mm 3 mps 681 mmHg 94%
    19:00 +4°C° 0.3 mm 3 mps 681 mmHg 95%
    20:00 +4°C° 0.3 mm 3 mps 681 mmHg 96%
    21:00 +4°C° 0.9 mm 3 mps 681 mmHg 97%
    22:00 +4°C° 0.9 mm 3 mps 680 mmHg 97%
    23:00 +4°C° 0.9 mm 3 mps 680 mmHg 97%

    26 January, Saturday

    Time Temperature Precipitation Wind Pressure Humidity
    00:00 +4°C° 0.6 mm 3 mps 680 mmHg 97%
    01:00 +4°C° 0.6 mm 3 mps 680 mmHg 97%
    02:00 +4°C° 0.6 mm 3 mps 679 mmHg 96%
    03:00 +4°C° 1 mm 3 mps 679 mmHg 97%
    04:00 +4°C° 1 mm 3 mps 679 mmHg 97%
    05:00 +4°C° 1 mm 3 mps 678 mmHg 97%
    06:00 +4°C° 0.6 mm 3 mps 679 mmHg 97%
    07:00 +4°C° 0.6 mm 3 mps 679 mmHg 97%
    08:00 +4°C° 0.6 mm 3 mps 679 mmHg 97%
    09:00 +5°C° 0.2 mm 3 mps 679 mmHg 93%
    10:00 +5°C° 0.2 mm 3 mps 679 mmHg 89%
    11:00 +6°C° 0.2 mm 4 mps 679 mmHg 86%
    12:00 +7°C° 0.4 mm 3 mps 679 mmHg 86%
    13:00 +7°C° 0.4 mm 3 mps 679 mmHg 87%
    14:00 +7°C° 0.4 mm 3 mps 679 mmHg 87%
    15:00 +7°C° 0.5 mm 2 mps 679 mmHg 89%
    16:00 +6°C° 0.5 mm 2 mps 679 mmHg 92%
    17:00 +6°C° 0.5 mm 2 mps 679 mmHg 94%
    18:00 +6°C° 0.6 mm 2 mps 680 mmHg 95%
    19:00 +5°C° 0.6 mm 2 mps 680 mmHg 95%
    20:00 +6°C° 0.6 mm 1 mps 680 mmHg 96%
    21:00 +6°C° 1 mm 1 mps 680 mmHg 96%
    22:00 +6°C° 1 mm 1 mps 680 mmHg 97%
    23:00 +6°C° 1 mm 1 mps 681 mmHg 97%
    Show more